| time (UTC) | temp F | wind direction | speed MPH | gust MPH | rain 1hr in | rain 24hr in | rain mn in | humidity % | barometer mb |
| 20260508190033 | 62 | 205 | 6.0 | 7.0 | 0.00 | 0.00 | 0.00 | 57 | 1019.1 |
| 20260508185041 | 61 | 198 | 5.0 | 8.0 | 0.00 | 0.00 | 0.00 | 61 | 1019.1 |
| 20260508184030 | 60 | 174 | 4.0 | 6.0 | 0.00 | 0.00 | 0.00 | 61 | 1019.1 |
| 20260508183019 | 60 | 185 | 7.0 | 10.0 | 0.00 | 0.00 | 0.00 | 62 | 1019.1 |
| 20260508182028 | 60 | 279 | 3.0 | 7.0 | 0.00 | 0.00 | 0.00 | 61 | 1019.1 |
| 20260508181035 | 61 | 134 | 5.0 | 7.0 | 0.00 | 0.00 | 0.00 | 61 | 1019.1 |
| 20260508180025 | 59 | 174 | 6.0 | 9.0 | 0.00 | 0.00 | 0.00 | 65 | 1019.1 |
| 20260508175031 | 59 | 164 | 8.0 | 12.0 | 0.00 | 0.00 | 0.00 | 64 | 1019.1 |
| 20260508174041 | 59 | 156 | 6.0 | 10.0 | 0.00 | 0.00 | 0.00 | 64 | 1019.1 |
| 20260508173029 | 56 | 183 | 5.0 | 8.0 | 0.00 | 0.00 | 0.00 | 70 | 1019.1 |
| 20260508172019 | 56 | 185 | 8.0 | 10.0 | 0.00 | 0.00 | 0.00 | 70 | 1019.1 |
| 20260508171019 | 56 | 182 | 6.0 | 8.0 | 0.00 | 0.00 | 0.00 | 70 | 1019.1 |
| 20260508170034 | 55 | 175 | 7.0 | 8.0 | 0.00 | 0.00 | 0.00 | 71 | 1019.1 |
| 20260508165023 | 55 | 173 | 7.0 | 9.0 | 0.00 | 0.00 | 0.00 | 72 | 1018.1 |
| 20260508164031 | 56 | 151 | 5.0 | 8.0 | 0.00 | 0.00 | 0.00 | 72 | 1018.1 |
| 20260508163020 | 56 | 131 | 5.0 | 9.0 | 0.00 | 0.00 | 0.00 | 71 | 1018.1 |
| 20260508162033 | 55 | 150 | 7.0 | 8.0 | 0.00 | 0.00 | 0.00 | 73 | 1018.1 |
| 20260508161021 | 55 | 130 | 6.0 | 8.0 | 0.00 | 0.00 | 0.00 | 74 | 1018.1 |
| 20260508160025 | 55 | 124 | 7.0 | 8.0 | 0.00 | 0.00 | 0.00 | 75 | 1018.1 |
| 20260508155053 | 54 | 116 | 6.0 | 9.0 | 0.00 | 0.00 | 0.00 | 77 | 1018.1 |
| 20260508154022 | 54 | 136 | 6.0 | 8.0 | 0.00 | 0.00 | 0.00 | 78 | 1018.1 |
| 20260508153031 | 54 | 132 | 6.0 | 8.0 | 0.00 | 0.00 | 0.00 | 78 | 1018.1 |
| 20260508152020 | 53 | 99 | 6.0 | 10.0 | 0.00 | 0.00 | 0.00 | 81 | 1018.1 |
| 20260508151022 | 51 | 86 | 6.0 | 8.0 | 0.00 | 0.00 | 0.00 | 84 | 1018.1 |
| 20260508150055 | 51 | 107 | 5.0 | 8.0 | 0.00 | 0.00 | 0.00 | 84 | 1018.1 |
| 20260508145025 | 51 | 97 | 4.0 | 7.0 | 0.00 | 0.00 | 0.00 | 83 | 1018.1 |
| 20260508144033 | 51 | 89 | 5.0 | 6.0 | 0.00 | 0.00 | 0.00 | 83 | 1018.1 |
| 20260508143042 | 52 | 110 | 4.0 | 6.0 | 0.00 | 0.00 | 0.00 | 79 | 1018.2 |
| 20260508142033 | 52 | 119 | 3.0 | 6.0 | 0.00 | 0.00 | 0.00 | 80 | 1018.2 |
| 20260508141019 | 51 | 154 | 5.0 | 6.0 | 0.00 | 0.00 | 0.00 | 81 | 1018.1 |
| 20260508140027 | 51 | 159 | 5.0 | 7.0 | 0.00 | 0.00 | 0.00 | 83 | 1018.2 |
| 20260508135035 | 50 | 159 | 4.0 | 5.0 | 0.00 | 0.00 | 0.00 | 85 | 1017.1 |
| 20260508134024 | 49 | 150 | 4.0 | 5.0 | 0.00 | 0.00 | 0.00 | 86 | 1017.1 |
| 20260508133032 | 49 | 156 | 4.0 | 7.0 | 0.00 | 0.00 | 0.00 | 86 | 1017.1 |
| 20260508132022 | 48 | 143 | 5.0 | 8.0 | 0.00 | 0.00 | 0.00 | 87 | 1017.1 |
| 20260508131025 | 48 | 155 | 4.0 | 6.0 | 0.00 | 0.00 | 0.00 | 87 | 1016.3 |
| 20260508130018 | 48 | 170 | 3.0 | 5.0 | 0.00 | 0.00 | 0.00 | 86 | 1016.1 |
| 20260508125027 | 49 | 165 | 6.0 | 8.0 | 0.00 | 0.00 | 0.00 | 86 | |
| 20260508124055 | 49 | 166 | 5.0 | 7.0 | 0.00 | 0.00 | 0.00 | 86 | |
| 20260508123024 | 49 | 167 | 3.0 | 5.0 | 0.00 | 0.00 | 0.00 | 85 | 1016.1 |
| 20260508122034 | 49 | 176 | 4.0 | 6.0 | 0.00 | 0.00 | 0.00 | 84 | |
| 20260508121025 | 50 | 168 | 4.0 | 8.0 | 0.00 | 0.00 | 0.00 | 84 | |
| 20260508120029 | 50 | 181 | 5.0 | 7.0 | 0.00 | 0.00 | 0.00 | 84 | 1016.2 |
| 20260508115019 | 50 | 182 | 6.0 | 10.0 | 0.00 | 0.00 | 0.00 | 84 | 1016.2 |
| 20260508114027 | 50 | 184 | 7.0 | 12.0 | 0.00 | 0.00 | 0.00 | 84 | 1015.4 |
| 20260508113034 | 50 | 203 | 5.0 | 6.0 | 0.00 | 0.00 | 0.00 | 84 | 1015.1 |
| 20260508112025 | 50 | 196 | 5.0 | 6.0 | 0.00 | 0.00 | 0.00 | 84 | 1015.2 |
| 20260508111025 | 50 | 217 | 4.0 | 5.0 | 0.00 | 0.00 | 0.00 | 84 | 1015.2 |
| 20260508110022 | 50 | 197 | 4.0 | 5.0 | 0.00 | 0.00 | 0.00 | 84 | 1015.2 |
| 20260508105049 | 50 | 210 | 2.0 | 4.0 | 0.00 | 0.00 | 0.00 | 83 | 1015.2 |
| 20260508104018 | 50 | 203 | 4.0 | 4.0 | 0.00 | 0.00 | 0.00 | 83 | 1015.2 |
| 20260508103027 | 50 | 200 | 5.0 | 7.0 | 0.00 | 0.00 | 0.00 | 83 | 1015.1 |
| 20260508102037 | 50 | 186 | 6.0 | 8.0 | 0.00 | 0.00 | 0.00 | 83 | 1015.2 |
| 20260508101026 | 50 | 199 | 5.0 | 7.0 | 0.00 | 0.00 | 0.00 | 83 | 1014.4 |
| 20260508100033 | 50 | 177 | 5.0 | 7.0 | 0.00 | 0.00 | 0.00 | 83 | 1014.1 |
| 20260508095021 | 50 | 198 | 6.0 | 7.0 | 0.00 | 0.00 | 0.00 | 82 | 1014.1 |
| 20260508094109 | 50 | 203 | 5.0 | 6.0 | 0.00 | 0.00 | 0.00 | 80 | 1014.1 |
| 20260508093037 | 51 | 206 | 4.0 | 6.0 | 0.00 | 0.00 | 0.00 | 79 | 1014.1 |
| 20260508092026 | 51 | 181 | 3.0 | 4.0 | 0.00 | 0.00 | 0.00 | 77 | 1014.1 |
| 20260508091027 | 51 | 176 | 3.0 | 5.0 | 0.00 | 0.00 | 0.00 | 76 | 1014.2 |
| 20260508090045 | 51 | 203 | 4.0 | 7.0 | 0.00 | 0.00 | 0.00 | 76 | 1014.1 |
| 20260508085032 | 51 | 202 | 5.0 | 6.0 | 0.00 | 0.00 | 0.00 | 76 | 1014.1 |
| 20260508084021 | 52 | 207 | 6.0 | 8.0 | 0.00 | 0.00 | 0.00 | 76 | 1014.1 |
| 20260508083028 | 52 | 211 | 5.0 | 7.0 | 0.00 | 0.00 | 0.00 | 76 | 1014.1 |
| 20260508082202 | 52 | 227 | 5.0 | 8.0 | 0.00 | 0.00 | 0.00 | 77 | 1014.1 |
| 20260508081028 | 52 | 218 | 5.0 | 6.0 | 0.00 | 0.00 | 0.00 | 76 | 1014.1 |
| 20260508080034 | 53 | 220 | 6.0 | 9.0 | 0.00 | 0.00 | 0.00 | 75 | 1014.1 |
| 20260508075023 | 52 | 219 | 4.0 | 5.0 | 0.00 | 0.00 | 0.00 | 76 | 1014.1 |
| 20260508074111 | 53 | 196 | 4.0 | 5.0 | 0.00 | 0.00 | 0.00 | 76 | 1013.3 |
| 20260508073021 | 53 | 205 | 3.0 | 4.0 | 0.00 | 0.00 | 0.00 | 75 | 1013.1 |
| 20260508072028 | 53 | 198 | 4.0 | 5.0 | 0.00 | 0.00 | 0.00 | 75 | 1013.1 |
| 20260508071030 | 53 | 204 | 5.0 | 6.0 | 0.00 | 0.00 | 0.00 | 74 | 1013.1 |
| 20260508070040 | 54 | 204 | 4.0 | 5.0 | 0.00 | 0.00 | 0.00 | 73 | 1013.1 |
| 20260508065033 | 54 | 201 | 8.0 | 9.0 | 0.00 | 0.00 | 0.00 | 72 | 1013.1 |
| 20260508064022 | 54 | 192 | 8.0 | 10.0 | 0.00 | 0.00 | 0.00 | 72 | 1013.1 |
| 20260508063030 | 55 | 199 | 7.0 | 8.0 | 0.00 | 0.00 | 0.00 | 72 | 1013.1 |
| 20260508062019 | 55 | 214 | 7.0 | 10.0 | 0.00 | 0.00 | 0.00 | 72 | 1013.1 |
| 20260508061027 | 55 | 216 | 6.0 | 8.0 | 0.00 | 0.00 | 0.00 | 72 | 1013.1 |
| 20260508060021 | 55 | 204 | 6.0 | 9.0 | 0.00 | 0.00 | 0.00 | 72 | 1013.1 |
| 20260508055025 | 56 | 194 | 7.0 | 9.0 | 0.00 | 0.00 | 0.00 | 70 | 1013.1 |
| 20260508054032 | 57 | 200 | 8.0 | 11.0 | 0.00 | 0.00 | 0.00 | 69 | 1013.1 |
| 20260508053021 | 57 | 206 | 7.0 | 10.0 | 0.00 | 0.00 | 0.00 | 69 | 1013.1 |
| 20260508052029 | 57 | 214 | 6.0 | 9.0 | 0.00 | 0.00 | 0.00 | 69 | 1013.1 |
| 20260508051033 | 58 | 204 | 8.0 | 9.0 | 0.00 | 0.00 | 0.00 | 68 | 1013.1 |
| 20260508050042 | 58 | 186 | 6.0 | 9.0 | 0.00 | 0.00 | 0.00 | 67 | 1013.1 |
| 20260508045034 | 59 | 196 | 7.0 | 10.0 | 0.00 | 0.00 | 0.00 | 65 | 1013.1 |
| 20260508044023 | 59 | 194 | 8.0 | 11.0 | 0.00 | 0.00 | 0.00 | 64 | 1013.1 |
| 20260508043030 | 59 | 208 | 7.0 | 11.0 | 0.00 | 0.00 | 0.00 | 64 | 1013.1 |
| 20260508042022 | 60 | 228 | 7.0 | 11.0 | 0.00 | 0.00 | 0.00 | 64 | 1013.1 |
| 20260508041028 | 60 | 221 | 8.0 | 10.0 | 0.00 | 0.00 | 0.00 | 64 | 1013.1 |
| 20260508040025 | 61 | 211 | 5.0 | 9.0 | 0.00 | 0.00 | 0.00 | 64 | 1013.1 |
| 20260508035045 | 61 | 223 | 8.0 | 10.0 | 0.00 | 0.00 | 0.00 | 65 | 1013.1 |
| 20260508034033 | 62 | 211 | 6.0 | 8.0 | 0.00 | 0.00 | 0.00 | 65 | 1013.1 |
| 20260508033022 | 63 | 223 | 7.0 | 9.0 | 0.00 | 0.00 | 0.00 | 64 | 1013.1 |
| 20260508032031 | 63 | 222 | 7.0 | 9.0 | 0.00 | 0.00 | 0.00 | 63 | 1012.1 |
| 20260508031019 | 65 | 224 | 7.0 | 10.0 | 0.00 | 0.00 | 0.00 | 62 | 1012.2 |
| 20260508030027 | 66 | 226 | 8.0 | 10.0 | 0.00 | 0.00 | 0.00 | 60 | 1012.2 |
| 20260508025054 | 68 | 220 | 7.0 | 9.0 | 0.00 | 0.00 | 0.00 | 57 | 1012.2 |
| 20260508024024 | 70 | 146 | 2.0 | 2.0 | 0.00 | 0.00 | 0.00 | 44 | 1012.2 |
| 20260508023032 | 70 | 44 | 2.0 | 3.0 | 0.00 | 0.00 | 0.00 | 43 | 1012.2 |
| 20260508022022 | 70 | 70 | 4.0 | 5.0 | 0.00 | 0.00 | 0.00 | 43 | 1012.2 |
| 20260508021030 | 70 | 60 | 4.0 | 6.0 | 0.00 | 0.00 | 0.00 | 43 | 1012.2 |
| 20260508020019 | 71 | 48 | 4.0 | 5.0 | 0.00 | 0.00 | 0.00 | 43 | 1012.2 |
| 20260508015026 | 71 | 43 | 5.0 | 7.0 | 0.00 | 0.00 | 0.00 | 42 | 1013.2 |
| 20260508014118 | 72 | 59 | 4.0 | 6.0 | 0.00 | 0.00 | 0.00 | 41 | 1013.2 |
| 20260508013042 | 72 | 66 | 4.0 | 5.0 | 0.00 | 0.00 | 0.00 | 43 | 1013.2 |
| 20260508012054 | 72 | 48 | 3.0 | 5.0 | 0.00 | 0.00 | 0.00 | 44 | 1013.2 |
| 20260508011021 | 72 | 53 | 4.0 | 6.0 | 0.00 | 0.00 | 0.00 | 44 | 1013.2 |
| 20260508010025 | 72 | 343 | 3.0 | 5.0 | 0.00 | 0.00 | 0.00 | 44 | 1013.2 |
| 20260508005153 | 0 | 338 | 5.0 | 5.0 | 0.00 | 0.00 | 0.00 | ||
| 20260508004045 | 0 | 0.0 | 0.0 | 0.00 | 0.00 | 0.00 | |||
| 20260508002653 | 73 | 6.0 | 7.0 | 0.00 | 0.00 | 0.00 | 43 | 1013.2 | |
| 20260508002214 | 0 | 55 | 4.0 | 5.0 | 0.00 | 0.00 | 0.00 | ||
| 20260507235029 | 73 | 18 | 3.0 | 5.0 | 0.00 | 0.00 | 0.00 | 41 | 1013.2 |
| 20260507234037 | 73 | 341 | 5.0 | 6.0 | 0.00 | 0.00 | 0.00 | 41 | 1014.2 |
| 20260507233026 | 72 | 242 | 4.0 | 5.0 | 0.00 | 0.00 | 0.00 | 42 | 1014.2 |
| 20260507232034 | 73 | 264 | 4.0 | 6.0 | 0.00 | 0.00 | 0.00 | 40 | 1014.2 |
| 20260507231106 | 73 | 274 | 4.0 | 6.0 | 0.00 | 0.00 | 0.00 | 41 | 1014.2 |
| 20260507230027 | 72 | 16 | 4.0 | 5.0 | 0.00 | 0.00 | 0.00 | 43 | 1014.2 |
| 20260507225021 | 72 | 293 | 4.0 | 6.0 | 0.00 | 0.00 | 0.00 | 42 | 1014.2 |
| 20260507224029 | 72 | 336 | 4.0 | 6.0 | 0.00 | 0.00 | 0.00 | 43 | 1014.2 |
| 20260507223037 | 71 | 6.0 | 6.0 | 0.00 | 0.00 | 0.00 | 41 | ||
| 20260507222140 | 73 | 304 | 4.0 | 6.0 | 0.00 | 0.00 | 0.00 | 41 | 1015.2 |
| 20260507221034 | 72 | 248 | 5.0 | 6.0 | 0.00 | 0.00 | 0.00 | 43 | 1015.2 |
| 20260507220025 | 71 | 73 | 2.0 | 4.0 | 0.00 | 0.00 | 0.00 | 46 | 1015.2 |
| 20260507215019 | 70 | 300 | 5.0 | 7.0 | 0.00 | 0.00 | 0.00 | 47 | 1015.2 |
| 20260507214021 | 69 | 37 | 4.0 | 6.0 | 0.00 | 0.00 | 0.00 | 49 | 1015.2 |
| 20260507213028 | 69 | 9 | 5.0 | 6.0 | 0.00 | 0.00 | 0.00 | 50 | 1015.2 |
| 20260507212037 | 69 | 324 | 5.0 | 7.0 | 0.00 | 0.00 | 0.00 | 51 | 1015.2 |
| 20260507211027 | 71 | 269 | 5.0 | 9.0 | 0.00 | 0.00 | 0.00 | 50 | 1015.2 |
| 20260507210030 | 69 | 270 | 3.0 | 5.0 | 0.00 | 0.00 | 0.00 | 52 | 1015.2 |
| 20260507205020 | 70 | 231 | 4.0 | 5.0 | 0.00 | 0.00 | 0.00 | 51 | 1016.2 |
| 20260507204032 | 69 | 159 | 3.0 | 6.0 | 0.00 | 0.00 | 0.00 | 54 | 1016.2 |
| 20260507203021 | 69 | 258 | 3.0 | 4.0 | 0.00 | 0.00 | 0.00 | 53 | 1016.2 |
| 20260507202049 | 67 | 290 | 3.0 | 4.0 | 0.00 | 0.00 | 0.00 | 55 | 1016.1 |
| 20260507201037 | 67 | 24 | 3.0 | 7.0 | 0.00 | 0.00 | 0.00 | 57 | 1016.1 |
| 20260507200026 | 68 | 284 | 4.0 | 5.0 | 0.00 | 0.00 | 0.00 | 56 | 1016.2 |
| 20260507195021 | 68 | 300 | 4.0 | 6.0 | 0.00 | 0.00 | 0.00 | 57 | 1016.2 |
| 20260507194024 | 67 | 1 | 4.0 | 6.0 | 0.00 | 0.00 | 0.00 | 59 | 1016.2 |
| 20260507193031 | 66 | 296 | 4.0 | 6.0 | 0.00 | 0.00 | 0.00 | 60 | 1016.2 |
| 20260507192021 | 66 | 44 | 5.0 | 7.0 | 0.00 | 0.00 | 0.00 | 60 | 1016.1 |
| 20260507191049 | 67 | 198 | 4.0 | 8.0 | 0.00 | 0.00 | 0.00 | 58 | 1016.9 |